Regional Weather Roundup
Issued by NWS

Current Version | Previous Version | Text Only | Print | Product List | Glossary On
Versions: 1 2 3 4 5 6 7 8 9 10 11 12 13 14 15 16 17 18 19 20 21 22 23 24 25 26 27 28 29 30 31 32 33 34 35 36 37 38 39 40 41 42 43 44 45 46 47 48 49 50
000
ASUS43 KDTX 172310
RWRMI
MICHIGAN HOURLY REGIONAL WEATHER ROUNDUP
NATIONAL WEATHER SERVICE DETROIT/PONTIAC MI
600 PM EST SAT NOV 17 2018

NOTE: "FAIR" INDICATES FEW OR NO CLOUDS BELOW 12,000 FEET WITH NO
SIGNIFICANT WEATHER AND/OR OBSTRUCTION TO VISIBILITY.

MIZ047>049-052>055-059>063-066>070-074>076-081>083-180000-
SOUTHEAST LOWER MICHIGAN

CITY           SKY/WX    TMP DP  RH WIND       PRES   REMARKS
ADRIAN         CLOUDY    36  31  82 N5        30.30R WCI  32
ALMA           CLOUDY    32  23  69 N3        30.31S
ANN ARBOR      CLOUDY    35  30  82 N6        30.29S WCI  30
BAD AXE        CLOUDY    32  26  78 CALM      30.31R
CARO           CLOUDY    32  28  84 N3        30.31R
DETROIT CITY   CLOUDY    35  28  75 N7        30.31S WCI  29
DETROIT        CLOUDY    37  27  67 N6        30.31R WCI  32
FLINT          CLOUDY    32  27  81 NW3       30.31S
GROSSE ILE     MOCLDY    36  29  78 N3        30.30R
HILLSDALE      CLOUDY    34  32  93 N5        30.27R WCI  30
HOWELL         CLOUDY    32  28  83 CALM      30.29S

CITY           SKY/WX    TMP DP  RH WIND       PRES   REMARKS
JACKSON        CLOUDY    34  29  82 N3        30.29S
LAMBERTVILLE   CLOUDY    39  33  78 CALM      30.30R
LANSING        CLOUDY    32  28  85 CALM      30.31S
LAPEER         CLOUDY    33  24  72 CALM      30.30S
MASON          CLOUDY    34  29  80 CALM      30.30S
MONROE         CLOUDY    36  34  92 CALM      30.30R
MT. CLEMENS    CLOUDY    34  30  84 N5        30.29S WCI  30
PONTIAC        CLOUDY    32  27  81 CALM      30.28S
PORT HOPE        N/A     33  22  63 NW9G16    30.29R WCI  25
PORT HURON     CLOUDY    32  27  80 CALM      30.32R
TRI CITIES     CLOUDY    32  26  78 N7        30.32R WCI  26
MIDLAND        CLOUDY    32  26  78 CALM      30.31S
TROY           CLOUDY    35  27  73 N5        30.32S WCI  31
SAGINAW HB     CLOUDY    32  28  86 NE3       30.31S
$$
MIZ043>046-050>051-056>058-064>065-071>073-077>080-180000-
SOUTHWEST LOWER MICHIGAN

CITY           SKY/WX    TMP DP  RH WIND       PRES   REMARKS
BATTLE CREEK   MOCLDY    33  29  85 NE6       30.30R WCI  28
BENTON HARBOR  CLOUDY    35  29  78 NE5       30.30S WCI  31
BIG RAPIDS     CLOUDY    31  23  71 CALM      30.29S
COLDWATER      CLOUDY    36  32  87 NE6       30.28S WCI  31
FREMONT        MOCLDY    31  26  78 N3        30.32R
HOLLAND        CLOUDY    34  27  75 NE3       30.31S
GRAND RAPIDS   CLOUDY    34  25  69 N5        30.30S WCI  30
IONIA          CLOUDY    33  25  72 CALM      30.30R
KALAMAZOO      CLOUDY    34  29  82 NE5       30.30S WCI  30
LUDINGTON      CLOUDY    31  25  78 NE3       30.32S
MARSHALL       CLOUDY    35  32  87 CALM      30.29S
MOUNT PLEASANT CLOUDY    32  22  66 N3        30.29F
SOUTH HAVEN    CLOUDY    34  28  76 NE3       30.31R
$$
MIZ016>042-180000-
NORTHERN LOWER MICHIGAN

CITY           SKY/WX    TMP DP  RH WIND       PRES   REMARKS
ALPENA         CLOUDY    28  15  58 W8        30.32R WCI  20
BEAVER ISLAND  CLOUDY    26  15  63 NW6       30.34R WCI  19
BELLAIRE       MOCLDY    29  19  64 N3        30.34R
CADILLAC       CLOUDY    27  19  72 N5        30.27S WCI  22
CHARLEVOIX     FLURRIES  29  20  66 NW12      30.36R WCI  20
FRANKFORT      CLOUDY    31  19  59 N6        30.33S WCI  25
GAYLORD        CLOUDY    25  16  68 NW5       30.28R WCI  19
GRAYLING       CLOUDY    26  20  79 N3        30.29R
HARBOR SPRINGS CLOUDY    28  15  59 NW8       30.32S WCI  19
HOUGHTON LAKE  CLOUDY    26  18  71 NW5       30.30R WCI  20
MANISTEE       FLURRIES  29  26  89 NE3       30.33S
OSCODA         CLOUDY    29  19  67 CALM      30.31R
PELLSTON       CLOUDY    26  15  63 NW9       30.33R WCI  17
ROGERS CITY    CLOUDY    27  19  72 W8        30.32R WCI  19
TRAVERSE CITY  FLURRIES  31  22  69 NW5       30.32S WCI  26
$$
MIZ007>008-015-180000-
EASTERN UPPER MICHIGAN

CITY           SKY/WX    TMP DP  RH WIND       PRES   REMARKS
KINROSS        FAIR      19  13  77 W10       30.31R WCI   7
MACKINAC ISLAN CLOUDY    24   8  51 NW12      30.32R WCI  13
NEWBERRY       CLOUDY    21  16  81 W6        30.32R WCI  14
S. S. MARIE    LGT SNOW  25  18  74 W13G24    30.28S WCI  14
MUNISING         N/A     24  11  57 W6        30.35R WCI  17
$$
MIZ004>006-011>014-085-180000-
CENTRAL UPPER MICHIGAN

CITY           SKY/WX    TMP DP  RH WIND       PRES   REMARKS
MANISTIQUE     FAIR      20   7  57 NW3       30.35R
ESCANABA       CLOUDY    26  12  55 CALM      30.36R
MENOMINEE      MOCLDY    27  13  55 CALM      30.36S
SAWYER-GWINN   PTCLDY    18   9  68 NW6       30.31R WCI   9
$$
MIZ001>003-009>011-084-180000-
WESTERN UPPER MICHIGAN

CITY           SKY/WX    TMP DP  RH WIND       PRES   REMARKS
IRON MOUNTAIN  FAIR      21  11  65 NW5       30.31S WCI  15
HOUGHTON       FLURRIES  20  10  65 W7        30.30F WCI  11
COPPER HARBOR    N/A     20  10  65 W6        30.33S WCI  12
IRONWOOD       FAIR      13   2  61 CALM      30.34F
$$

ABBREVIATIONS USED IN REMARKS
   TC - TEMPERATURE IN CELSIUS
  WCI - WIND CHILL INDEX
   HX - HEAT INDEX
  VSB - VISIBILITY




USA.gov is the U.S. government's official web portal to all federal, state and local government web resources and services.